BVR114 SARI-SBSP

Flight info

Callsign BVR114
Flight time 1h 7m
Altitude 34000
Route KAMIL2C KAMIL UZ28 XONUG UZ121 BUXUK DCT ORESU
Aircraft A321/M-SDE3FGHIRWY/LB1

Departure

Time 2026-04-17 10:20
Airport Cataratas Del Iguazú International Airport (SARI)

Arrival

Time 2026-04-17 11:27
Airport Congonhas–Deputado Freitas Nobre Airport (SBSP)
Time Latitude Longitude Altitude Speed Heading
2026-04-17 10:09 -25.73226 -54.47676 927 ft 0 kts 25°
2026-04-17 10:13 -25.73233 -54.47679 927 ft 4 kts 21°
2026-04-17 10:13 -25.73258 -54.47684 930 ft 4 kts 347°
2026-04-17 10:14 -25.73280 -54.47672 929 ft 4 kts 300°
2026-04-17 10:14 -25.73284 -54.47662 930 ft 1 kts 294°
2026-04-17 10:14 -25.73285 -54.47662 930 ft 0 kts 294°
2026-04-17 10:16 -25.73284 -54.47663 931 ft 1 kts 294°
2026-04-17 10:16 -25.73279 -54.47676 929 ft 3 kts 294°
2026-04-17 10:16 -25.73268 -54.47702 931 ft 6 kts 294°
2026-04-17 10:16 -25.73246 -54.47757 929 ft 10 kts 294°
2026-04-17 10:17 -25.73225 -54.47851 930 ft 15 kts 274°
2026-04-17 10:17 -25.73231 -54.47985 927 ft 20 kts 264°
2026-04-17 10:17 -25.73245 -54.48157 928 ft 25 kts 265°
2026-04-17 10:17 -25.73258 -54.48353 929 ft 26 kts 271°
2026-04-17 10:18 -25.73203 -54.48555 927 ft 29 kts 295°
2026-04-17 10:18 -25.73116 -54.48730 930 ft 16 kts 307°
2026-04-17 10:18 -25.73128 -54.48802 926 ft 10 kts 177°
2026-04-17 10:18 -25.73148 -54.48736 928 ft 10 kts 106°
2026-04-17 10:19 -25.73151 -54.48727 927 ft 0 kts 111°
2026-04-17 10:19 -25.73225 -54.48549 930 ft 61 kts 115°
2026-04-17 10:19 -25.73496 -54.47901 930 ft 121 kts 115°
2026-04-17 10:19 -25.73920 -54.46888 934 ft 166 kts 115°
2026-04-17 10:20 -25.74400 -54.45679 1417 ft 168 kts 115°
2026-04-17 10:20 -25.74884 -54.44498 2048 ft 168 kts 117°
2026-04-17 10:20 -25.75399 -54.43281 2363 ft 183 kts 117°
2026-04-17 10:20 -25.75974 -54.41930 2511 ft 204 kts 116°
2026-04-17 10:21 -25.76603 -54.40445 2639 ft 226 kts 116°
2026-04-17 10:21 -25.77308 -54.38776 2787 ft 253 kts 116°
2026-04-17 10:21 -25.78078 -54.36941 3250 ft 269 kts 115°
2026-04-17 10:21 -25.78878 -54.35021 3952 ft 277 kts 114°
2026-04-17 10:22 -25.79697 -54.33053 4691 ft 284 kts 114°
2026-04-17 10:22 -25.80532 -54.31043 5412 ft 291 kts 114°
2026-04-17 10:22 -25.81388 -54.28984 6138 ft 297 kts 114°
2026-04-17 10:22 -25.82262 -54.26882 6827 ft 301 kts 114°
2026-04-17 10:23 -25.83140 -54.24758 7551 ft 304 kts 113°
2026-04-17 10:23 -25.83726 -54.22506 8254 ft 305 kts 95°
2026-04-17 10:23 -25.83681 -54.20158 8939 ft 306 kts 77°
2026-04-17 10:23 -25.83297 -54.18654 9372 ft 306 kts 66°
2026-04-17 10:24 -25.82222 -54.16620 9980 ft 307 kts 49°
2026-04-17 10:24 -25.80816 -54.14761 10215 ft 326 kts 47°
2026-04-17 10:24 -25.79304 -54.12771 10345 ft 347 kts 48°
2026-04-17 10:24 -25.77733 -54.10690 10729 ft 356 kts 48°
2026-04-17 10:25 -25.76178 -54.08522 11267 ft 362 kts 54°
2026-04-17 10:25 -25.74852 -54.06115 11848 ft 367 kts 58°
2026-04-17 10:25 -25.73532 -54.03674 12407 ft 371 kts 58°
2026-04-17 10:25 -25.72192 -54.01209 13016 ft 375 kts 58°
2026-04-17 10:26 -25.70832 -53.98714 13602 ft 379 kts 58°
2026-04-17 10:26 -25.69457 -53.96199 14116 ft 383 kts 57°
2026-04-17 10:26 -25.68070 -53.93665 14639 ft 387 kts 57°
2026-04-17 10:26 -25.66663 -53.91094 15169 ft 391 kts 57°
2026-04-17 10:27 -25.65246 -53.88505 15692 ft 395 kts 57°
2026-04-17 10:27 -25.63814 -53.85891 16226 ft 399 kts 57°
2026-04-17 10:27 -25.62366 -53.83246 16744 ft 402 kts 57°
2026-04-17 10:27 -25.60903 -53.80578 17275 ft 406 kts 56°
2026-04-17 10:28 -25.59497 -53.77894 17759 ft 411 kts 62°
2026-04-17 10:28 -25.58451 -53.74926 18257 ft 417 kts 73°
2026-04-17 10:28 -25.57826 -53.71777 18717 ft 420 kts 78°
2026-04-17 10:28 -25.57246 -53.68595 19166 ft 423 kts 78°
2026-04-17 10:29 -25.56649 -53.65351 19620 ft 426 kts 78°
2026-04-17 10:29 -25.56057 -53.62163 20043 ft 429 kts 77°
2026-04-17 10:29 -25.55442 -53.58884 20475 ft 432 kts 77°
2026-04-17 10:29 -25.54834 -53.55657 20919 ft 434 kts 77°
2026-04-17 10:30 -25.54215 -53.52373 21337 ft 437 kts 78°
2026-04-17 10:30 -25.53594 -53.49067 21762 ft 440 kts 78°
2026-04-17 10:30 -25.52970 -53.45740 22180 ft 443 kts 78°
2026-04-17 10:30 -25.52339 -53.42393 22596 ft 446 kts 77°
2026-04-17 10:31 -25.51702 -53.39025 23012 ft 448 kts 78°
2026-04-17 10:31 -25.51065 -53.35635 23424 ft 451 kts 78°
2026-04-17 10:31 -25.50427 -53.32224 23762 ft 454 kts 78°
2026-04-17 10:31 -25.49783 -53.28795 24102 ft 456 kts 78°
2026-04-17 10:32 -25.49134 -53.25351 24472 ft 458 kts 78°
2026-04-17 10:32 -25.48478 -53.21891 24814 ft 460 kts 77°
2026-04-17 10:32 -25.47819 -53.18415 25170 ft 463 kts 77°
2026-04-17 10:32 -25.47155 -53.14922 25523 ft 465 kts 77°
2026-04-17 10:33 -25.46486 -53.11413 25882 ft 467 kts 77°
2026-04-17 10:33 -25.45814 -53.07888 26234 ft 469 kts 77°
2026-04-17 10:33 -25.45137 -53.04338 26590 ft 472 kts 77°
2026-04-17 10:33 -25.44456 -53.00781 26926 ft 474 kts 77°
2026-04-17 10:34 -25.43769 -52.97205 27212 ft 477 kts 77°
2026-04-17 10:34 -25.43079 -52.93605 27538 ft 480 kts 77°
2026-04-17 10:34 -25.42386 -52.89987 27848 ft 482 kts 77°
2026-04-17 10:34 -25.41685 -52.86351 28172 ft 484 kts 77°
2026-04-17 10:35 -25.40979 -52.82691 28497 ft 487 kts 77°
2026-04-17 10:35 -25.40274 -52.79022 28809 ft 489 kts 77°
2026-04-17 10:35 -25.39562 -52.75338 29103 ft 491 kts 76°
2026-04-17 10:35 -25.38845 -52.71638 29330 ft 495 kts 76°
2026-04-17 10:36 -25.38123 -52.67905 29569 ft 498 kts 76°
2026-04-17 10:36 -25.37395 -52.64154 29849 ft 500 kts 76°
2026-04-17 10:36 -25.36663 -52.60387 30109 ft 502 kts 76°
2026-04-17 10:36 -25.35936 -52.56644 30317 ft 505 kts 76°
2026-04-17 10:37 -25.35196 -52.52842 30539 ft 507 kts 76°
2026-04-17 10:37 -25.34450 -52.49020 30736 ft 510 kts 76°
2026-04-17 10:37 -25.33696 -52.45178 30952 ft 513 kts 76°
2026-04-17 10:37 -25.32940 -52.41318 31209 ft 514 kts 76°
2026-04-17 10:38 -25.32185 -52.37453 31534 ft 514 kts 76°
2026-04-17 10:38 -25.31426 -52.33578 31834 ft 515 kts 76°
2026-04-17 10:38 -25.30669 -52.29716 32126 ft 516 kts 76°
2026-04-17 10:38 -25.29908 -52.25839 32400 ft 517 kts 76°
2026-04-17 10:39 -25.29143 -52.21957 32682 ft 517 kts 76°
2026-04-17 10:39 -25.28370 -52.18070 32969 ft 518 kts 76°
2026-04-17 10:39 -25.27592 -52.14169 33258 ft 519 kts 76°
2026-04-17 10:39 -25.26819 -52.10280 33542 ft 520 kts 76°
2026-04-17 10:40 -25.26043 -52.06371 33850 ft 520 kts 76°
2026-04-17 10:40 -25.24504 -51.98621 33969 ft 510 kts 76°
2026-04-17 10:41 -25.22978 -51.90996 33968 ft 507 kts 76°
2026-04-17 10:41 -25.21451 -51.83404 33970 ft 506 kts 76°
2026-04-17 10:42 -25.19925 -51.75805 33969 ft 507 kts 76°
2026-04-17 10:42 -25.18404 -51.68262 33973 ft 507 kts 76°
2026-04-17 10:43 -25.16864 -51.60661 33975 ft 507 kts 76°
2026-04-17 10:43 -25.15330 -51.53081 33966 ft 506 kts 76°
2026-04-17 10:44 -25.13781 -51.45490 33966 ft 506 kts 76°
2026-04-17 10:44 -25.12234 -51.37904 33990 ft 506 kts 76°
2026-04-17 10:45 -25.10679 -51.30336 33964 ft 505 kts 76°
2026-04-17 10:45 -25.09124 -51.22778 33972 ft 505 kts 76°
2026-04-17 10:46 -25.07568 -51.15224 33973 ft 505 kts 76°
2026-04-17 10:46 -25.06015 -51.07670 33972 ft 505 kts 76°
2026-04-17 10:47 -25.04448 -51.00108 33971 ft 505 kts 76°
2026-04-17 10:47 -25.02882 -50.92602 33977 ft 506 kts 76°
2026-04-17 10:48 -25.01292 -50.85044 33972 ft 505 kts 76°
2026-04-17 10:48 -24.99705 -50.77473 33976 ft 505 kts 76°
2026-04-17 10:49 -24.98124 -50.69931 33976 ft 505 kts 76°
2026-04-17 10:49 -24.96540 -50.62424 33973 ft 505 kts 76°
2026-04-17 10:50 -24.94959 -50.54890 33976 ft 505 kts 76°
2026-04-17 10:50 -24.93368 -50.47359 33975 ft 504 kts 76°
2026-04-17 10:51 -24.91764 -50.39831 33972 ft 504 kts 75°
2026-04-17 10:51 -24.90154 -50.32305 33980 ft 503 kts 76°
2026-04-17 10:52 -24.88564 -50.24842 33985 ft 503 kts 76°
2026-04-17 10:52 -24.86968 -50.17369 33980 ft 503 kts 75°
2026-04-17 10:53 -24.85355 -50.09858 33978 ft 502 kts 75°
2026-04-17 10:53 -24.83744 -50.02374 33979 ft 502 kts 75°
2026-04-17 10:54 -24.82145 -49.94938 33979 ft 501 kts 76°
2026-04-17 10:54 -24.80531 -49.87472 33980 ft 501 kts 75°
2026-04-17 10:55 -24.78863 -49.80018 33981 ft 501 kts 73°
2026-04-17 10:55 -24.76951 -49.72642 33971 ft 501 kts 72°
2026-04-17 10:56 -24.74936 -49.65295 33977 ft 501 kts 72°
2026-04-17 10:56 -24.72966 -49.57953 33981 ft 501 kts 72°
2026-04-17 10:57 -24.71042 -49.50588 33968 ft 501 kts 73°
2026-04-17 10:57 -24.69121 -49.43219 33974 ft 501 kts 72°
2026-04-17 10:58 -24.67183 -49.35866 33977 ft 501 kts 72°
2026-04-17 10:58 -24.65252 -49.28514 33969 ft 500 kts 72°
2026-04-17 10:59 -24.63333 -49.21164 33980 ft 500 kts 72°
2026-04-17 10:59 -24.61404 -49.13826 33974 ft 499 kts 72°
2026-04-17 11:00 -24.59448 -49.06547 33969 ft 499 kts 72°
2026-04-17 11:00 -24.57460 -48.99230 33971 ft 499 kts 72°
2026-04-17 11:01 -24.55475 -48.91922 33970 ft 499 kts 72°
2026-04-17 11:01 -24.53500 -48.84609 33969 ft 499 kts 72°
2026-04-17 11:02 -24.51521 -48.77304 33968 ft 499 kts 72°
2026-04-17 11:02 -24.49548 -48.70023 33963 ft 498 kts 72°
2026-04-17 11:03 -24.47582 -48.62722 33966 ft 498 kts 72°
2026-04-17 11:03 -24.45603 -48.55408 33960 ft 499 kts 72°
2026-04-17 11:04 -24.43620 -48.48134 33949 ft 498 kts 72°
2026-04-17 11:04 -24.41634 -48.40865 33944 ft 499 kts 72°
2026-04-17 11:05 -24.39646 -48.33578 33943 ft 499 kts 72°
2026-04-17 11:05 -24.37650 -48.26279 33945 ft 500 kts 72°
2026-04-17 11:06 -24.34933 -48.19312 33944 ft 495 kts 54°
2026-04-17 11:06 -24.30406 -48.13768 33938 ft 484 kts 33°
2026-04-17 11:07 -24.24738 -48.09969 33948 ft 476 kts 22°
2026-04-17 11:07 -24.18890 -48.06529 33946 ft 478 kts 22°
2026-04-17 11:07 -24.15961 -48.04804 33845 ft 479 kts 22°
2026-04-17 11:08 -24.13026 -48.03074 33530 ft 477 kts 22°
2026-04-17 11:08 -24.11093 -48.01932 33109 ft 476 kts 22°
2026-04-17 11:08 -24.08187 -48.00220 32519 ft 474 kts 23°
2026-04-17 11:08 -24.05283 -47.98513 31918 ft 473 kts 23°
2026-04-17 11:09 -24.02386 -47.96812 31307 ft 472 kts 23°
2026-04-17 11:09 -23.98550 -47.94564 30541 ft 470 kts 24°
2026-04-17 11:09 -23.96602 -47.93424 30146 ft 469 kts 24°
2026-04-17 11:10 -23.90904 -47.90092 28941 ft 464 kts 24°
2026-04-17 11:10 -23.88072 -47.88432 28369 ft 460 kts 24°
2026-04-17 11:10 -23.85261 -47.86783 27800 ft 457 kts 24°
2026-04-17 11:10 -23.82470 -47.85148 27250 ft 453 kts 25°
2026-04-17 11:11 -23.79701 -47.83526 26707 ft 450 kts 25°
2026-04-17 11:11 -23.77076 -47.81675 26213 ft 450 kts 36°
2026-04-17 11:11 -23.74804 -47.79333 25693 ft 450 kts 47°
2026-04-17 11:11 -23.72867 -47.76664 25186 ft 447 kts 51°
2026-04-17 11:12 -23.70998 -47.74031 24674 ft 429 kts 50°
2026-04-17 11:12 -23.69197 -47.71504 24210 ft 419 kts 50°
2026-04-17 11:12 -23.67404 -47.69002 23732 ft 418 kts 50°
2026-04-17 11:12 -23.65611 -47.66507 23189 ft 416 kts 50°
2026-04-17 11:13 -23.63836 -47.64040 22699 ft 412 kts 51°
2026-04-17 11:13 -23.62070 -47.61583 22211 ft 409 kts 51°
2026-04-17 11:13 -23.60322 -47.59150 21723 ft 406 kts 51°
2026-04-17 11:13 -23.58588 -47.56738 21231 ft 404 kts 51°
2026-04-17 11:14 -23.56856 -47.54328 20723 ft 402 kts 51°
2026-04-17 11:14 -23.55138 -47.51934 20235 ft 400 kts 51°
2026-04-17 11:14 -23.53425 -47.49546 19731 ft 399 kts 51°
2026-04-17 11:14 -23.51719 -47.47168 19233 ft 395 kts 51°
2026-04-17 11:15 -23.50058 -47.44854 18763 ft 383 kts 51°
2026-04-17 11:15 -23.48412 -47.42567 18282 ft 384 kts 51°
2026-04-17 11:15 -23.46766 -47.40288 17755 ft 383 kts 51°
2026-04-17 11:15 -23.45117 -47.38013 17286 ft 380 kts 51°
2026-04-17 11:16 -23.43483 -47.35757 16819 ft 378 kts 51°
2026-04-17 11:16 -23.41860 -47.33510 16356 ft 376 kts 51°
2026-04-17 11:16 -23.40269 -47.31303 15903 ft 375 kts 51°
2026-04-17 11:16 -23.38663 -47.29076 15441 ft 373 kts 51°
2026-04-17 11:17 -23.37062 -47.26859 14996 ft 372 kts 51°
2026-04-17 11:17 -23.35467 -47.24652 14539 ft 370 kts 51°
2026-04-17 11:17 -23.33878 -47.22453 14087 ft 369 kts 52°
2026-04-17 11:17 -23.32293 -47.20261 13607 ft 368 kts 52°
2026-04-17 11:18 -23.30888 -47.17972 13327 ft 359 kts 67°
2026-04-17 11:18 -23.30312 -47.15409 13196 ft 343 kts 89°
2026-04-17 11:18 -23.30597 -47.12927 12857 ft 322 kts 111°
2026-04-17 11:18 -23.31615 -47.10827 12152 ft 310 kts 132°
2026-04-17 11:19 -23.33212 -47.09294 11561 ft 305 kts 152°
2026-04-17 11:19 -23.35145 -47.08419 11188 ft 298 kts 168°
2026-04-17 11:19 -23.37155 -47.07947 10474 ft 298 kts 170°
2026-04-17 11:19 -23.39179 -47.07487 10087 ft 294 kts 167°
2026-04-17 11:20 -23.41043 -47.06626 9334 ft 292 kts 147°
2026-04-17 11:20 -23.42499 -47.05133 8829 ft 287 kts 127°
2026-04-17 11:20 -23.43440 -47.03193 8584 ft 293 kts 109°
2026-04-17 11:20 -23.44011 -47.01055 8312 ft 293 kts 107°
2026-04-17 11:21 -23.44566 -46.98944 7988 ft 292 kts 107°
2026-04-17 11:21 -23.45124 -46.96817 7730 ft 292 kts 107°
2026-04-17 11:21 -23.45679 -46.94697 7449 ft 290 kts 107°
2026-04-17 11:21 -23.46228 -46.92587 7191 ft 287 kts 107°
2026-04-17 11:22 -23.46759 -46.90534 7069 ft 275 kts 107°
2026-04-17 11:22 -23.47271 -46.88555 6797 ft 272 kts 107°
2026-04-17 11:22 -23.47785 -46.86567 6451 ft 272 kts 107°
2026-04-17 11:22 -23.48285 -46.84636 6180 ft 255 kts 107°
2026-04-17 11:23 -23.48764 -46.82783 5944 ft 254 kts 107°
2026-04-17 11:23 -23.49245 -46.80931 5689 ft 253 kts 107°
2026-04-17 11:23 -23.49718 -46.79113 5455 ft 246 kts 107°
2026-04-17 11:23 -23.50175 -46.77354 5244 ft 236 kts 107°
2026-04-17 11:24 -23.50607 -46.75689 5036 ft 224 kts 107°
2026-04-17 11:24 -23.51182 -46.74146 4816 ft 218 kts 123°
2026-04-17 11:24 -23.52180 -46.72930 4618 ft 214 kts 144°
2026-04-17 11:24 -23.53366 -46.72059 4498 ft 202 kts 150°
2026-04-17 11:25 -23.54520 -46.71272 4302 ft 189 kts 150°
2026-04-17 11:25 -23.55612 -46.70523 4069 ft 182 kts 149°
2026-04-17 11:25 -23.56676 -46.69789 3860 ft 179 kts 149°
2026-04-17 11:25 -23.57723 -46.69066 3642 ft 175 kts 148°
2026-04-17 11:26 -23.58733 -46.68369 3425 ft 170 kts 148°
2026-04-17 11:26 -23.59717 -46.67689 3206 ft 162 kts 147°
2026-04-17 11:26 -23.60647 -46.67046 2985 ft 155 kts 146°
2026-04-17 11:26 -23.61549 -46.66423 2775 ft 151 kts 145°
2026-04-17 11:27 -23.62414 -46.65817 2612 ft 139 kts 146°
2026-04-17 11:27 -23.63089 -46.65354 2610 ft 72 kts 149°
2026-04-17 11:27 -23.63231 -46.65259 2610 ft 1 kts 148°
2026-04-17 11:27 -23.63287 -46.65221 2609 ft 18 kts 149°
2026-04-17 11:28 -23.63400 -46.65268 2602 ft 19 kts 265°
2026-04-17 11:28 -23.63313 -46.65344 2602 ft 16 kts 330°
2026-04-17 11:28 -23.63222 -46.65406 2602 ft 15 kts 328°
2026-04-17 11:28 -23.63136 -46.65464 2602 ft 15 kts 328°
2026-04-17 11:29 -23.63047 -46.65523 2602 ft 15 kts 333°
2026-04-17 11:29 -23.62950 -46.65573 2602 ft 16 kts 335°
2026-04-17 11:29 -23.62853 -46.65626 2603 ft 16 kts 329°
2026-04-17 11:29 -23.62759 -46.65691 2602 ft 16 kts 327°
2026-04-17 11:30 -23.62661 -46.65758 2602 ft 17 kts 328°
2026-04-17 11:30 -23.62561 -46.65825 2602 ft 15 kts 328°
2026-04-17 11:30 -23.62559 -46.65907 2601 ft 8 kts 240°
2026-04-17 11:30 -23.62565 -46.65917 2601 ft 0 kts 238°
2026-04-17 11:31 -23.62569 -46.65923 2601 ft 0 kts 237°